TMSAT

Satellite information

Favourite Embed

Satellite Type and Status

PAYLOADIN ORBIT

Key statistics

Satellite TMSAT at a glance.

Uptime

9858

Days in orbit

Revolutions

≈ 14.3

Per day

Orbit

SSO

Sun Synchronous Orbit

Inclination

98.9

Latest

Satellite identification and parameters

Extended collection of information and parameters for TMSAT.

Object identification

Identified? True

Debris? False

Object name: TMSAT

International designator: 1998-043C

Object number (NORAD): 25396

Object ID (CCSDS): 25396

Country: THAILAND (THAI)

Current information (Y/N): Y

RCS size: MEDIUM

Orbital parameters

Period: 101.011 minutes

Inclination: 98.9486 deg

SMA: 7184.667 km

Apoapsis: 809.231 km

Periapsis: 803.833 km

RAAN: 164.5769 deg

Eccentricy: 0.0003756

Argument of periapsis: 84.8149 deg

Mean anomaly: 275.3458 deg

Mean motion: 14.25583944 rev/day

Mean motion (dot): 0.00000114 rev/day2

B* drag term: 0.00006784 1/REarth

Two-line elements (TLE)

Creation date: July 5, 2025, 5:45 p.m.

Reference frame: TEME

Reference center: EARTH

Epoch: July 5, 2025, 11:33 a.m. UTC

TLE line 0: 0 TMSAT

TLE line 1: 1 25396U 98043C 25186.48160920 .00000114 00000-0 67840-4 0 9996

TLE line 2: 2 25396 98.9486 164.5769 0003756 84.8149 275.3458 14.25583944402593

Live tracking on map

Real-time ground track for satellite TMSAT.

In-orbit conjunctions

There are no conjunctions computed for TMSAT, at the moment. Check back to stay up to date, as we update our databases every day.

Go to all conjunctions

Associated space launch

Resurs-O1 N4 or Resurs-O1 2 is the fourth earth observation satellite in the Russian Resurs-O1 program.

TMSAT was lifted into orbit during the mission ‘Zenit-2 | Resurs-O1’, on board a Zenit-2 space rocket.

The launch took place on July 10, 1998, 6:30 a.m. from 45/1.

For more information about the launch, click the button.

Launch to space Zenit-2 | Resurs-O1
Zenit-2 | Resurs-O1

Agency: N/A

Status: Launch Successful

Launch date: July 10, 1998, 6:30 a.m. UTC

Rocket: Zenit-2

Launch pad: 45/1

Location: Baikonur Cosmodrome, Republic of Kazakhstan

...

Latest news about this satellite

There are no fresh news available about this satellite. Check back as we update our databases every day.


Newsletter sign-up

Weekly statistics, charts and insights to help you stay on top of the space industry.